User: anonymous   Login
Location: Zagreb
(45.8000°N, 16.0000°E)
Time: 15:45:03
(UTC+02:00)
Language:

A-11 Canister half - Orbit

View from above orbital plane
View from above orbital plane
View from above satellite
View from above satellite

Ground track
Ground track

The orbit data is extracted from the following two-line orbital elements,

1 00053U 60009E   24195.82091268  .00000009  00000-0  91846-3 0  9990
2 00053  47.2792 351.9162 0100431 156.3343 204.2110 12.17340146849743
Epoch (UTC): 13 July 2024 19:42:06
Eccentricity: 0.0100431
inclination: 47.2792°
perigee height: 1524 km
apogee height: 1684 km
right ascension of ascending node: 351.9162°
argument of perigee: 156.3343°
revolutions per day: 12.17340146
mean anomaly at epoch: 204.2110°
orbit number at epoch: 84974

The dashed part of the orbit path shows where the satellite is in the earth's shadow,  

DLR